AAL3178 KCLT-KRDU

Flight info

Callsign AAL3178
Flight time 0h 31m
Altitude 13000
Route KCLT LILLS3 LILLS ETBUY DMSTR2 KRDU
Aircraft A321/M-VGDW/C

Departure

Time 2026-05-07 00:27
Airport Charlotte Douglas International Airport (KCLT)

Arrival

Time 2026-05-07 00:59
Airport Raleigh-Durham International Airport (KRDU)
Time Latitude Longitude Altitude Speed Heading
2026-05-07 00:10 35.21751 -80.94203 739 ft 0 kts 335°
2026-05-07 00:19 35.21745 -80.94199 739 ft 3 kts 335°
2026-05-07 00:19 35.21728 -80.94190 738 ft 3 kts 335°
2026-05-07 00:20 35.21711 -80.94180 737 ft 3 kts 335°
2026-05-07 00:20 35.21695 -80.94171 737 ft 3 kts 335°
2026-05-07 00:20 35.21677 -80.94161 736 ft 3 kts 335°
2026-05-07 00:20 35.21666 -80.94155 737 ft 0 kts 335°
2026-05-07 00:21 35.21676 -80.94147 735 ft 3 kts 31°
2026-05-07 00:21 35.21684 -80.94113 738 ft 5 kts 70°
2026-05-07 00:21 35.21699 -80.94090 740 ft 0 kts 46°
2026-05-07 00:23 35.21708 -80.94079 738 ft 11 kts 46°
2026-05-07 00:23 35.21789 -80.93971 742 ft 16 kts 49°
2026-05-07 00:23 35.21844 -80.93891 743 ft 9 kts 49°
2026-05-07 00:23 35.21880 -80.93842 742 ft 12 kts 49°
2026-05-07 00:24 35.21958 -80.93732 746 ft 18 kts 49°
2026-05-07 00:24 35.22056 -80.93716 747 ft 20 kts 354°
2026-05-07 00:24 35.22174 -80.93724 749 ft 14 kts 358°
2026-05-07 00:24 35.22264 -80.93731 750 ft 13 kts 356°
2026-05-07 00:25 35.22353 -80.93737 751 ft 14 kts 356°
2026-05-07 00:25 35.22466 -80.93750 753 ft 15 kts 354°
2026-05-07 00:25 35.22515 -80.93654 756 ft 17 kts 87°
2026-05-07 00:25 35.22470 -80.93616 753 ft 9 kts 165°
2026-05-07 00:26 35.22440 -80.93612 752 ft 0 kts 176°
2026-05-07 00:26 35.22439 -80.93612 752 ft 2 kts 176°
2026-05-07 00:26 35.22175 -80.93591 748 ft 73 kts 176°
2026-05-07 00:27 35.21446 -80.93532 743 ft 136 kts 175°
2026-05-07 00:27 35.20319 -80.93433 879 ft 179 kts 176°
2026-05-07 00:27 35.19020 -80.93331 1469 ft 198 kts 178°
2026-05-07 00:27 35.17673 -80.93068 1640 ft 199 kts 163°
2026-05-07 00:28 35.16365 -80.92129 1870 ft 239 kts 140°
2026-05-07 00:28 35.15276 -80.90485 2472 ft 264 kts 130°
2026-05-07 00:28 35.14214 -80.88576 3516 ft 270 kts 123°
2026-05-07 00:28 35.13506 -80.86456 4603 ft 282 kts 111°
2026-05-07 00:29 35.13054 -80.84021 5260 ft 305 kts 105°
2026-05-07 00:29 35.12646 -80.81549 6041 ft 296 kts 106°
2026-05-07 00:30 35.11343 -80.73885 8198 ft 314 kts 104°
2026-05-07 00:30 35.10874 -80.71269 8961 ft 317 kts 105°
2026-05-07 00:30 35.10383 -80.68612 9833 ft 323 kts 104°
2026-05-07 00:30 35.09893 -80.65891 10565 ft 332 kts 105°
2026-05-07 00:31 35.09385 -80.63118 11387 ft 336 kts 105°
2026-05-07 00:31 35.08854 -80.60281 12036 ft 349 kts 105°
2026-05-07 00:31 35.08325 -80.57349 12750 ft 358 kts 104°
2026-05-07 00:31 35.07799 -80.54326 13359 ft 373 kts 104°
2026-05-07 00:32 35.07240 -80.51136 13291 ft 407 kts 104°
2026-05-07 00:32 35.06631 -80.47610 13052 ft 439 kts 104°
2026-05-07 00:32 35.06006 -80.43975 12817 ft 432 kts 103°
2026-05-07 00:32 35.05398 -80.40412 12761 ft 427 kts 103°
2026-05-07 00:33 35.04724 -80.36882 12761 ft 427 kts 106°
2026-05-07 00:33 35.03982 -80.33376 12764 ft 427 kts 107°
2026-05-07 00:33 35.03234 -80.29878 12758 ft 427 kts 107°
2026-05-07 00:33 35.02481 -80.26359 12746 ft 427 kts 107°
2026-05-07 00:34 35.01732 -80.22864 12736 ft 427 kts 107°
2026-05-07 00:34 35.00945 -80.19359 12725 ft 426 kts 109°
2026-05-07 00:34 34.99990 -80.15954 12744 ft 424 kts 112°
2026-05-07 00:34 34.99019 -80.12542 12806 ft 426 kts 111°
2026-05-07 00:35 34.98142 -80.09131 12853 ft 428 kts 108°
2026-05-07 00:35 34.97335 -80.05644 12899 ft 427 kts 106°
2026-05-07 00:35 34.96956 -80.02047 12891 ft 434 kts 89°
2026-05-07 00:35 34.97373 -79.98537 12700 ft 430 kts 75°
2026-05-07 00:36 34.98328 -79.95056 12541 ft 426 kts 69°
2026-05-07 00:36 34.99331 -79.91653 12434 ft 428 kts 69°
2026-05-07 00:36 35.00484 -79.88314 12340 ft 425 kts 60°
2026-05-07 00:36 35.02061 -79.85352 12248 ft 420 kts 50°
2026-05-07 00:37 35.03840 -79.82465 12163 ft 420 kts 50°
2026-05-07 00:37 35.05592 -79.79594 12066 ft 420 kts 50°
2026-05-07 00:37 35.07319 -79.76817 11957 ft 418 kts 50°
2026-05-07 00:37 35.09054 -79.74043 11869 ft 418 kts 50°
2026-05-07 00:38 35.10808 -79.71236 11802 ft 416 kts 50°
2026-05-07 00:38 35.12566 -79.68425 11838 ft 418 kts 50°
2026-05-07 00:38 35.14346 -79.65628 11885 ft 416 kts 47°
2026-05-07 00:38 35.16239 -79.62939 11973 ft 416 kts 45°
2026-05-07 00:39 35.18147 -79.60268 12014 ft 420 kts 45°
2026-05-07 00:39 35.20106 -79.57633 11969 ft 415 kts 41°
2026-05-07 00:39 35.22251 -79.55304 11904 ft 410 kts 33°
2026-05-07 00:39 35.24520 -79.53249 11866 ft 410 kts 31°
2026-05-07 00:40 35.26887 -79.51291 11813 ft 408 kts 28°
2026-05-07 00:40 35.28867 -79.49779 11763 ft 406 kts 26°
2026-05-07 00:40 35.31279 -79.48069 11689 ft 405 kts 24°
2026-05-07 00:40 35.33759 -79.46447 11646 ft 404 kts 22°
2026-05-07 00:41 35.36248 -79.44876 11581 ft 403 kts 25°
2026-05-07 00:41 35.38602 -79.42960 11522 ft 408 kts 33°
2026-05-07 00:41 35.40755 -79.40656 11474 ft 410 kts 39°
2026-05-07 00:41 35.42785 -79.38242 11424 ft 410 kts 41°
2026-05-07 00:42 35.44835 -79.35778 11392 ft 411 kts 40°
2026-05-07 00:42 35.46818 -79.33407 11353 ft 410 kts 40°
2026-05-07 00:42 35.48872 -79.30990 11309 ft 408 kts 39°
2026-05-07 00:42 35.51004 -79.28690 11270 ft 408 kts 36°
2026-05-07 00:43 35.53189 -79.26445 11234 ft 407 kts 36°
2026-05-07 00:43 35.55330 -79.24258 11184 ft 406 kts 36°
2026-05-07 00:43 35.57524 -79.22064 11143 ft 407 kts 34°
2026-05-07 00:43 35.59768 -79.19945 11106 ft 404 kts 32°
2026-05-07 00:44 35.62012 -79.17946 10925 ft 392 kts 33°
2026-05-07 00:44 35.64055 -79.15834 10719 ft 376 kts 39°
2026-05-07 00:44 35.65796 -79.13514 10491 ft 363 kts 47°
2026-05-07 00:44 35.67272 -79.11056 10255 ft 350 kts 52°
2026-05-07 00:45 35.68650 -79.08647 9992 ft 339 kts 51°
2026-05-07 00:45 35.69963 -79.06292 9744 ft 328 kts 53°
2026-05-07 00:45 35.71216 -79.04000 9448 ft 319 kts 53°
2026-05-07 00:45 35.72424 -79.01753 9140 ft 311 kts 53°
2026-05-07 00:46 35.73623 -78.99572 8824 ft 303 kts 52°
2026-05-07 00:46 35.74801 -78.97457 8474 ft 297 kts 52°
2026-05-07 00:46 35.76009 -78.95371 7938 ft 299 kts 50°
2026-05-07 00:46 35.77228 -78.93377 7706 ft 287 kts 45°
2026-05-07 00:47 35.78642 -78.91805 7651 ft 271 kts 25°
2026-05-07 00:47 35.80309 -78.90802 7190 ft 268 kts 15°
2026-05-07 00:47 35.82052 -78.90014 6849 ft 269 kts 12°
2026-05-07 00:47 35.83894 -78.89304 6795 ft 283 kts
2026-05-07 00:48 35.85817 -78.88645 6857 ft 291 kts
2026-05-07 00:48 35.87840 -78.87973 6943 ft 309 kts
2026-05-07 00:48 35.89939 -78.87291 7090 ft 323 kts
2026-05-07 00:48 35.92163 -78.86587 7283 ft 334 kts
2026-05-07 00:49 35.94369 -78.85494 7466 ft 345 kts 26°
2026-05-07 00:49 35.96198 -78.83696 7291 ft 335 kts 42°
2026-05-07 00:49 35.97707 -78.81529 6993 ft 327 kts 49°
2026-05-07 00:49 35.99051 -78.79307 6686 ft 319 kts 52°
2026-05-07 00:50 36.00311 -78.77074 6331 ft 313 kts 53°
2026-05-07 00:50 36.01634 -78.75213 6331 ft 268 kts 34°
2026-05-07 00:50 36.03099 -78.74075 6176 ft 238 kts 27°
2026-05-07 00:50 36.04353 -78.72737 5777 ft 234 kts 43°
2026-05-07 00:51 36.05371 -78.71242 5420 ft 225 kts 41°
2026-05-07 00:51 36.06506 -78.69967 5034 ft 219 kts 33°
2026-05-07 00:51 36.07699 -78.68786 4562 ft 220 kts 31°
2026-05-07 00:51 36.08919 -78.67590 4092 ft 232 kts 36°
2026-05-07 00:52 36.09961 -78.66052 3834 ft 231 kts 58°
2026-05-07 00:52 36.10459 -78.64237 3553 ft 219 kts 85°
2026-05-07 00:52 36.10320 -78.62438 3228 ft 204 kts 115°
2026-05-07 00:52 36.09609 -78.61017 2882 ft 187 kts 144°
2026-05-07 00:53 36.08523 -78.60266 2651 ft 181 kts 174°
2026-05-07 00:53 36.07331 -78.60135 2664 ft 160 kts 189°
2026-05-07 00:53 36.06357 -78.60476 2649 ft 135 kts 212°
2026-05-07 00:53 36.05494 -78.60993 2701 ft 153 kts 209°
2026-05-07 00:54 36.04417 -78.61583 2920 ft 183 kts 211°
2026-05-07 00:54 36.03253 -78.62294 3165 ft 177 kts 211°
2026-05-07 00:54 36.02149 -78.62950 3211 ft 166 kts 212°
2026-05-07 00:54 36.01221 -78.63622 3136 ft 148 kts 218°
2026-05-07 00:55 36.00303 -78.64446 2899 ft 170 kts 223°
2026-05-07 00:55 35.99427 -78.65365 2652 ft 169 kts 225°
2026-05-07 00:55 35.98613 -78.66347 2383 ft 159 kts 228°
2026-05-07 00:55 35.97794 -78.67413 2127 ft 184 kts 228°
2026-05-07 00:56 35.96862 -78.68636 1946 ft 216 kts 227°
2026-05-07 00:56 35.95855 -78.69838 1959 ft 184 kts 225°
2026-05-07 00:56 35.95024 -78.70884 1893 ft 159 kts 227°
2026-05-07 00:56 35.94276 -78.71835 1689 ft 152 kts 225°
2026-05-07 00:57 35.93507 -78.72736 1455 ft 156 kts 226°
2026-05-07 00:57 35.92776 -78.73707 1261 ft 152 kts 226°
2026-05-07 00:57 35.91962 -78.74657 1102 ft 161 kts 223°
2026-05-07 00:57 35.91162 -78.75630 929 ft 160 kts 224°
2026-05-07 00:58 35.90362 -78.76620 730 ft 158 kts 224°
2026-05-07 00:58 35.89559 -78.77600 520 ft 165 kts 224°
2026-05-07 00:58 35.88784 -78.78541 407 ft 144 kts 227°
2026-05-07 00:58 35.88136 -78.79331 393 ft 113 kts 224°
2026-05-07 00:59 35.87736 -78.79696 384 ft 13 kts 130°
2026-05-07 00:59 35.87757 -78.79625 385 ft 6 kts 54°
2026-05-07 00:59 35.87771 -78.79605 385 ft 0 kts 48°
2026-05-07 01:00 35.87774 -78.79601 385 ft 5 kts 48°
2026-05-07 01:00 35.87827 -78.79531 386 ft 13 kts 46°
2026-05-07 01:00 35.87897 -78.79431 390 ft 20 kts 66°
2026-05-07 01:01 35.87883 -78.79334 390 ft 9 kts 160°
2026-05-07 01:01 35.87842 -78.79304 390 ft 2 kts 142°
2026-05-07 01:01 35.87841 -78.79303 390 ft 0 kts 142°